Regional Weather Roundup
Issued by NWS

Home | Current Version | Previous Version | Text Only | Print | Product List | Glossary Off
Versions: 1 2 3 4 5 6 7 8 9 10 11 12 13 14 15 16 17 18 19 20 21 22 23 24 25 26 27 28 29 30 31 32 33 34 35 36 37 38 39 40 41 42 43 44 45 46 47 48 49 50

000
ASUS43 KLOT 011710
RWRIL

ILLINOIS REGIONAL WEATHER ROUNDUP
NATIONAL WEATHER SERVICE CHICAGO/ROMEOVILLE IL
1200 PM CDT MON SEP 01 2014

NOTE: "FAIR" INDICATES FEW OR NO CLOUDS BELOW 12,000 FEET WITH NO
SIGNIFICANT WEATHER AND/OR OBSTRUCTIONS TO VISIBILITY.

* THESE STATIONS ARE NOT UNDER NWS QUALITY CONTROL. THEY ALSO MAY NOT
  REPORT WEATHER SUCH AS PRECIPITATION OR FOG.

ILZ001-002-007-009-015-016-024-011800-
NORTHWEST ILLINOIS

CITY           SKY/WX    TMP DP  RH WIND       PRES   REMARKS
MOLINE         MOSUNNY   78  65  63 SW16G23   29.78S HX  80
STERLING*      MOSUNNY   81  66  61 W15G21    29.79S HX  83
SAVANNA*       PTSUNNY   79  64  60 W14       29.76S HX  80
$$

ILZ003-004-008-010-011-017-018-011800-
NORTH CENTRAL ILLINOIS

CITY           SKY/WX    TMP DP  RH WIND       PRES   REMARKS
ROCKFORD       PTSUNNY   78  66  66 W13       29.78F HX  80
FREEPORT*      MOSUNNY   78  69  73 SW12G21   29.79F HX  80
ROCHELLE*      MOSUNNY   77  66  70 SW10      29.79S
DE KALB*       CLOUDY    73  66  79 SW12      29.80S
PERU*          MOSUNNY   77  67  70 W13G21    29.81S
$$

ILZ005-006-012>014-019>023-011800-
NORTHEAST ILLINOIS

CITY           SKY/WX    TMP DP  RH WIND       PRES   REMARKS
CHICAGO-OHARE  CLOUDY    76  67  73 W13       29.77F
CHICAGO-MIDWAY CLOUDY    81  75  82 SW13      29.78F HX  87
AURORA         CLOUDY    77  68  73 SW12      29.80R
LANSING*         N/A    N/A N/A N/A MISG        N/A
JOLIET*        CLOUDY    78  67  68 SW8G16    29.81R HX  80
WAUKEGAN       CLOUDY    76  71  85 SW12      29.75F
DUPAGE AIRPORT CLOUDY    77  69  76 SW13      29.78F
KANKAKEE*      PTSUNNY   80  72  77 SW15G21   29.82S HX  83
WHEELING       CLOUDY    77  70  79 S12       29.77F
MORRIS*        PTSUNNY   78  70  75 W13G18    29.80R HX  80
ROMEOVILLE*    CLOUDY    78  70  77 W10       29.80R HX  80
NORTHERLY ISL    N/A     78  69  73 SW10        N/A  HX  80
$$

LMZ740>746-011800-
SOUTHERN LAKE MICHIGAN

STATION/POSITION SKY/WX   TEMP    WIND        PRES    VSBY  WAVE
                          AIR SEA DIR/SP/G                  HT/PER
                          (F)     (DEG/KT/KT) (MB)    (MI)  (FT/S)
SOUTHERN BUOY              71 69  230/ 12/ 14 1007.8R
WAUKEGAN HARBOR            73     220/ 11/ 13   N/A
HARRISON CRIB              75     220/ 15/ 21   N/A
BURNHAM HARBOR             78     250/  9/ 12   N/A
CALUMET HARBOR             78     230/  7/ 13 1007.4F
MICHIGAN CITY              74     190/ 14/ 19   N/A
MICHIGAN CITY 6N           74 72  220/ 12/ 16   N/A           2/ 3
ST. JOSEPH                 73 72  190/ 14/ 19   N/A           3/ 4
$$

ILZ025>027-034>036-040-047-049-050-058-095>099-011800-
WEST-CENTRAL ILLINOIS

CITY           SKY/WX    TMP DP  RH WIND       PRES   REMARKS
QUINCY         PTSUNNY   74  64  71 W14G21    29.87R
GALESBURG*     PTSUNNY   79  67  67 W13       29.83R HX  82
MACOMB*        PTSUNNY   76  66  71 W14       29.86R
JACKSONVILLE*  PTSUNNY   80  66  61 W16G23    29.87R HX  82
PITTSFIELD*    PTSUNNY   78  64  62 W14G23    29.88R
$$

ILZ028>032-037-038-041>044-048-051>054-059>061-011800-
CENTRAL ILLINOIS

CITY           SKY/WX    TMP DP  RH WIND       PRES   REMARKS
PONTIAC        MOSUNNY   82  70  65 SW8G16    29.81R HX  86
DECATUR        CLOUDY    81  68  64 SW13      29.85R HX  84
PEORIA         MOSUNNY   79  64  60 W9        29.83R HX  81
LACON*         MOSUNNY   77  64  63 W10G17    29.81S
LINCOLN*       PTSUNNY   82  63  52 SW9G21    29.80R HX  83
SPRINGFIELD    CLOUDY    80  65  59 W9        29.85R HX  82
TAYLORVILLE    CLOUDY    79  70  73 SW9G17    29.86R HX  81
$$

ILZ033-039-045-046-055>057-062-063-011800-
EAST-CENTRAL ILLINOIS

CITY           SKY/WX    TMP DP  RH WIND       PRES   REMARKS
CHAMPAIGN      CLOUDY    81  70  69 SW16G26   29.84R HX  84
DANVILLE*      CLOUDY    78  73  83 SW17G23   29.82R HX  81
RANTOUL*       CLOUDY    82  69  66 SW16      29.84R HX  85
MATTOON        CLOUDY    79  71  76 S15G29    29.85R HX  82
PARIS*         CLOUDY    80  73  81 S15       29.86R HX  84
$$

ILZ079-100>102-011800-
SOUTHWEST ILLINOIS

CITY           SKY/WX    TMP DP  RH WIND       PRES   REMARKS
ALTON          CLOUDY    79  64  61 SW13      29.88  HX  81
BELLEVILLE     CLOUDY    79  68  69 VRB2      29.87R HX  82
CAHOKIA*       CLOUDY    78  66  66 W8        29.87R HX  80
SPARTA*        CLOUDY    77  66  69 S10G21    29.89R
$$

ILZ064>066-069>071-074>076-080>082-084>086-088>090-092>094-011800-
SOUTH-CENTRAL ILLINOIS

CITY           SKY/WX    TMP DP  RH WIND       PRES   REMARKS
CARBONDALE     CLOUDY    79  71  76 S24G31    29.89F HX  82
CAIRO*         CLOUDY    84  73  68 SW10G22   29.98F HX  90
EFFINGHAM*     CLOUDY    80  69  68 S16G22    29.86S HX  82
MARION         PTSUNNY   81  73  78 S17G25    29.93F HX  85
MT. VERNON     CLOUDY    81  72  74 S16G28    29.88R HX  84
CENTRALIA*     CLOUDY    81  72  74 S10G26    29.88R HX  84
SALEM*         CLOUDY    82  75  78 S17       29.88R HX  89
METROPOLIS*    CLOUDY    81  73  75 SW10G22   29.98F HX  86
$$

ILZ067-068-072-073-078-083-087-091-011800-
SOUTHEAST ILLINOIS

CITY           SKY/WX    TMP DP  RH WIND       PRES   REMARKS
LAWRENCEVILLE  CLOUDY    82  73  74 S17G28    29.87F HX  87
FLORA*         CLOUDY    79  72  77 S18G28    29.87R HX  82
FAIRFIELD*     CLOUDY    81  75  83 S15G25    29.87F HX  86
HARRISBURG*    CLOUDY    81  72  75 S17G24    29.93F HX  85
ROBINSON*      CLOUDY    81  74  80 SW16G23   29.89R HX  86
CARMI*         CLOUDY    84  75  72 S17G23    29.90F HX  92
$$

ABBREVIATIONS USED IN REMARKS
   TC - TEMPERATURE IN CELSIUS
  WCI - WIND CHILL INDEX
   HX - HEAT INDEX
  VSB - VISIBILITY
$$



USA.gov is the U.S. government's official web portal to all federal, state and local government web resources and services.